User: anonymous   Login
Location: ????????
(54.9045°N, 39.1041°E)
Time: 19:26:54
(UTC+00:00)
Language:

Cosmos 1726 - Orbit

View from above orbital plane
View from above orbital plane
View from above satellite
View from above satellite

Ground track
Ground track

The orbit data is extracted from the following two-line orbital elements,

1 16495U 86006A   24177.55079913  .00050961  00000-0  59396-3 0  9991
2 16495  82.4595 355.1697 0006164 126.6171 233.5654 15.61434848108075
Epoch (UTC): 25 June 2024 13:13:09
Eccentricity: 0.0006164
inclination: 82.4595°
perigee height: 379 km
apogee height: 387 km
right ascension of ascending node: 355.1697°
argument of perigee: 126.6171°
revolutions per day: 15.61434848
mean anomaly at epoch: 233.5654°
orbit number at epoch: 10807

The dashed part of the orbit path shows where the satellite is in the earth's shadow,  

DLR